COSMOS 1275 DEB, 42226

Orbit data source: Space-Track

COSMOS 1275 DEB, 42226 is space debris in LEO originally from a launch on Thu, 04 Jun 1981 UTC launched from the Plesetsk Missile And Space Complex (PKMTR). Debris objects in space refer to the collection of defunct objects orbiting the Earth. Examples of debris include non-operational satellites, rocket bodies, and fragments generated from explosions, collisions, or faulty payload assembly.

Loading next visibility...
Identifier
42226, 1981-053US
Orbit
LEO
Country
Flag of CISCIS
Related business
Manufacturer
Unknown
Mission
Spacecraft
Bus & Motor
Unknown
Mass
Unknown
Launch date (UTC)
1981-06-04 (44 years ago)
Launch vehicle
Unknown
Launch site
Plesetsk Missile And Space Complex (PKMTR)
Object type
Payload
Rocket body
Debris
Shape & HBR
Unknown shape, 0.1 m
Radar Cross Section
Small (<0.1 m²)

Expand to show TLE details & history
Last TLE update: 2 weeks ago

TLE from 2 weeks ago
0 COSMOS 1275 DEB
1 42226U 81053US  25300.45526066  .00001398  00000-0  15414-2 0  9995
2 42226  82.9529  15.2918 0111298 107.8375 253.4956 13.68681116595545
Epoch: 2025-10-27T10:55Z
TLE epoch observation values (Epoch: 2025-10-27T10:55:34.521Z)
Latitude
0.00007°
Longitude
175.34111°
Altitude
1,031.385 km
Speed
7.324 km/s
True Right ascension
01h 01m 10s
True Declination
0° 00' 00"
Sunlit
Object was in full shadow at epoch
Visualization orbit readout
Latitude
Unknown
Longitude
Unknown
Altitude
Unknown
Speed
Unknown
Apparent Right ascension
Unknown
Apparent Declination
Unknown
Sunlit
N/A
Visualization observer readout
Local Sidereal Time
07:10:06
Azimuth
Unknown
Elevation
Unknown
Doppler factor
Unknown
Orbital elements
Apogee altitude
1,083.6 km
Perigee altitude
919.333 km
Semi-major axis
7,379.603 km
Eccentricity
0.01113
Inclination
82.9529°
RAAN
15.2918°
Arg. of periapsis
107.8375°
True anomaly
252.27767°
Mean anomaly
253.4956°
Eccentric anomaly
252.88615°
Mean motion
3.42368 °/min
Orbital period
105.15 mins
BSTAR
0.0015414
Loading maneuver chart data...
Computing Atmospheric mass density...
Loading historical data...
Loading historical data...
Loading historical data...
Loading historical data...
Loading historical data...
Loading historical data...
Loading historical data...

Documentation

Showing up to 5 results
|